C/2019 N1 ( ATLAS )

Japanese version
Home page
Updated on December 17, 2021

---------------------------------------------------------------------

* Profile

Discovery Date July 5, 2019
Magnitude 18.6 mag
Discoverer Asteroid Terrestrial-Impact Last Alert System (ATLAS) search program

* Pictures

* Orbital Elements

Epoch 2020 Dec. 17.0 TT = JDT 2459200.5
T 2020 Dec. 1.80229 TT                                  Rudenko
q   1.7046516            (2000.0)            P               Q
z  +0.0000169      Peri.  193.44408     -0.93824302     +0.25608269
 +/-0.0000007      Node    13.57320     -0.14507120     +0.31925530
e   0.9999713      Incl.   82.42749     -0.31409297     -0.91241312
From 1724 observations 2019 June 10-2021 May 14, mean residual 0".8.

* Finding Charts

* Magnitudes Graph

        m1 = 8.5 + 5 log d + 8.0 log r(t + 30)

---------------------------------------------------------------------

The orbital elements are published on M.P.E.C. 2021-L04.
The charts are made with StellaNavigator Ver.10 (AstroArts).
The magnitudes graphs are made with Comet for Windows.

---------------------------------------------------------------------

Copyright(C) Seiichi Yoshida (comet@aerith.net). All rights reserved.